H1 CPF 2 NER 2024 7 19 9 201 01 glonass116 H2 0907001 9116 36111 2024 7 19 0 0 0 2024 7 22 23 45 0 900 1 1 0 0 0 1 H9 10 0 60510 0.00000 0 -11215498.658 13938762.099 -18177606.886 10 0 60510 900.00000 0 -13099169.159 14896809.251 -16029810.848 10 0 60510 1800.00000 0 -14658344.689 15855358.330 -13570509.192 10 0 60510 2700.00000 0 -15873134.101 16755875.332 -10847453.847 10 0 60510 3600.00000 0 -16736615.580 17538943.445 -7913541.123 10 0 60510 4500.00000 0 -17254891.377 18146875.413 -4825783.754 10 0 60510 5400.00000 0 -17446604.584 18526271.823 -1644200.708 10 0 60510 6300.00000 0 -17341938.936 18630416.658 1569353.416 10 0 60510 7200.00000 0 -16981144.603 18421408.062 4752396.074 10 0 60510 8100.00000 0 -16412652.994 17871933.352 7843037.373 10 0 60510 9000.00000 0 -15690861.122 16966612.333 10781189.078 10 0 60510 9900.00000 0 -14873680.049 15702851.241 13509737.704 10 0 60510 10800.00000 0 -14019951.830 14091170.443 15975658.278 10 0 60510 11700.00000 0 -13186844.802 12154991.267 18131046.709 10 0 60510 12600.00000 0 -12427337.708 9929890.282 19934050.483 10 0 60510 13500.00000 0 -11787899.108 7462351.659 21349679.746 10 0 60510 14400.00000 0 -11306459.955 4808069.285 22350483.346 10 0 60510 15300.00000 0 -11010764.593 2029869.048 22917077.229 10 0 60510 16200.00000 0 -10917169.214 -804662.637 23038515.540 10 0 60510 17100.00000 0 -11029937.886 -3625745.991 22712497.885 10 0 60510 18000.00000 0 -11341065.273 -6364064.611 21945409.252 10 0 60510 18900.00000 0 -11830633.009 -8953402.249 20752192.236 10 0 60510 19800.00000 0 -12467684.407 -11333151.001 19156054.290 10 0 60510 20700.00000 0 -13211580.458 -13450587.682 17188015.706 10 0 60510 21600.00000 0 -14013779.975 -15262824.830 14886306.999 10 0 60510 22500.00000 0 -14819968.921 -16738356.300 12295627.129 10 0 60510 23400.00000 0 -15572449.340 -17858134.152 9466276.680 10 0 60510 24300.00000 0 -16212687.247 -18616133.058 6453182.558 10 0 60510 25200.00000 0 -16683912.141 -19019379.756 3314832.872 10 0 60510 26100.00000 0 -16933658.416 -19087447.373 112142.613 10 0 60510 27000.00000 0 -16916141.285 -18851436.805 -3092727.852 10 0 60510 27900.00000 0 -16594366.707 -18352488.855 -6237578.504 10 0 60510 28800.00000 0 -15941885.880 -17639890.440 -9261375.978 10 0 60510 29700.00000 0 -14944119.736 -16768855.128 -12105436.938 10 0 60510 30600.00000 0 -13599197.001 -15798072.038 -14714565.490 10 0 60510 31500.00000 0 -11918269.665 -14787126.426 -17038122.492 10 0 60510 32400.00000 0 -9925291.562 -13793900.663 -19031006.146 10 0 60510 33300.00000 0 -7656268.276 -12872065.049 -20654525.173 10 0 60510 34200.00000 0 -5158008.576 -12068763.854 -21877147.938 10 0 60510 35100.00000 0 -2486428.247 -11422593.634 -22675113.405 10 0 60510 36000.00000 0 295524.327 -10961958.507 -23032892.432 10 0 60510 36900.00000 0 3120235.735 -10703871.330 -22943490.685 10 0 60510 37800.00000 0 5917991.045 -10653251.019 -22408587.421 10 0 60510 38700.00000 0 8619627.920 -10802745.545 -21438507.303 10 0 60510 39600.00000 0 11159172.026 -11133088.213 -20052025.439 10 0 60510 40500.00000 0 13476345.083 -11613972.508 -18276008.923 10 0 60510 41400.00000 0 15518841.988 -12205409.041 -16144901.108 10 0 60510 42300.00000 0 17244282.669 -12859507.799 -13700057.958 10 0 60510 43200.00000 0 18621757.740 -13522610.832 -10988948.681 10 0 60510 44100.00000 0 19632903.756 -14137685.528 -8064235.612 10 0 60510 45000.00000 0 20272463.384 -14646877.279 -4982750.980 10 0 60510 45900.00000 0 20548307.405 -14994113.356 -1804390.388 10 0 60510 46800.00000 0 20480918.109 -15127647.275 1409055.248 10 0 60510 47700.00000 0 20102356.385 -15002435.257 4595106.043 10 0 60510 48600.00000 0 19454756.756 -14582243.295 7691813.638 10 0 60510 49500.00000 0 18588414.584 -13841394.719 10638971.362 10 0 60510 50400.00000 0 17559547.000 -12766083.344 13379289.705 10 0 60510 51300.00000 0 16427822.847 -11355195.750 15859513.637 10 0 60510 52200.00000 0 15253766.539 -9620607.086 18031459.608 10 0 60510 53100.00000 0 14096145.853 -7586937.072 19852951.864 10 0 60510 54000.00000 0 13009454.049 -5290775.686 21288639.972 10 0 60510 54900.00000 0 12041592.346 -2779410.212 22310682.009 10 0 60510 55800.00000 0 11231850.054 -109106.272 22899280.634 10 0 60510 56700.00000 0 10609266.820 2656986.129 23043062.276 10 0 60510 57600.00000 0 10191445.108 5451214.959 22739292.682 10 0 60510 58500.00000 0 9983862.071 8203998.490 21993925.229 10 0 60510 59400.00000 0 9979708.870 10846481.436 20821481.453 10 0 60510 60300.00000 0 10160263.434 13313165.380 19244766.386 10 0 60510 61200.00000 0 10495780.312 15544404.996 17294424.257 10 0 60510 62100.00000 0 10946859.657 17488667.261 15008343.086 10 0 60510 63000.00000 0 11466237.328 19104460.565 12430919.471 10 0 60510 63900.00000 0 12000920.426 20361854.301 9612197.581 10 0 60510 64800.00000 0 12494578.053 21243526.488 6606898.783 10 0 60510 65700.00000 0 12890086.298 21745296.601 3473360.487 10 0 60510 66600.00000 0 13132119.847 21876122.165 272404.752 10 0 60510 67500.00000 0 13169680.587 21657560.127 -2933841.433 10 0 60510 68400.00000 0 12958456.101 21122716.360 -6083151.197 10 0 60510 69300.00000 0 12462908.053 20314728.056 -9114404.618 10 0 60510 70200.00000 0 11658001.799 19284843.475 -11968773.787 10 0 60510 71100.00000 0 10530503.581 18090180.087 -14590863.034 10 0 60510 72000.00000 0 9079789.805 16791255.618 -16929782.101 10 0 60510 72900.00000 0 7318133.413 15449395.974 -18940131.654 10 0 60510 73800.00000 0 5270454.107 14124128.799 -20582882.208 10 0 60510 74700.00000 0 2973541.685 12870672.004 -21826129.775 10 0 60510 75600.00000 0 474783.590 11737622.328 -22645713.978 10 0 60510 76500.00000 0 -2169551.654 10764940.473 -23025686.986 10 0 60510 77400.00000 0 -4896404.990 9982316.888 -22958624.440 10 0 60510 78300.00000 0 -7638305.705 9407986.341 -22445772.452 10 0 60510 79200.00000 0 -10325941.013 9048040.646 -21497027.712 10 0 60510 80100.00000 0 -12890810.602 8896268.150 -20130750.776 10 0 60510 81000.00000 0 -15267856.710 8934526.608 -18373415.630 10 0 60510 81900.00000 0 -17397961.083 9133633.718 -16259101.659 10 0 60510 82800.00000 0 -19230205.299 9454737.865 -13828837.180 10 0 60510 83700.00000 0 -20723800.570 9851111.323 -11129806.592 10 0 60510 84600.00000 0 -21849606.650 10270290.211 -8214435.987 10 0 60510 85500.00000 0 -22591176.398 10656470.612 -5139374.686 10 0 60511 0.00000 0 -22945282.381 10953059.150 -1964392.730 10 0 60511 900.00000 0 -22921903.706 11105269.676 1248785.760 10 0 60511 1800.00000 0 -22543673.583 11062654.985 4437685.866 10 0 60511 2700.00000 0 -21844811.935 10781465.994 7540303.389 10 0 60511 3600.00000 0 -20869588.042 10226737.060 10496315.863 10 0 60511 4500.00000 0 -19670378.949 9374008.332 13248260.382 10 0 60511 5400.00000 0 -18305406.109 8210611.235 15742654.420 10 0 60511 6300.00000 0 -16836246.291 6736461.811 17931037.416 10 0 60511 7200.00000 0 -15325222.105 4964327.520 19770912.617 10 0 60511 8100.00000 0 -13832782.258 2919555.413 21226570.998 10 0 60511 9000.00000 0 -12414981.774 639272.212 22269781.530 10 0 60511 9900.00000 0 -11121167.782 -1828910.941 22880334.904 10 0 60511 10800.00000 0 -9991967.530 -4428635.703 23046430.762 10 0 60511 11700.00000 0 -9057662.243 -7096903.991 22764901.543 10 0 60511 12600.00000 0 -8337014.123 -9766468.606 22041269.164 10 0 60511 13500.00000 0 -7836594.581 -12368408.299 20889633.872 10 0 60511 14400.00000 0 -7550640.797 -14834780.955 19332397.661 10 0 60511 15300.00000 0 -7461445.600 -17101245.324 17399827.695 10 0 60511 16200.00000 0 -7540263.307 -19109543.019 15129468.130 10 0 60511 17100.00000 0 -7748692.649 -20809738.270 12565411.489 10 0 60511 18000.00000 0 -8040477.914 -22162122.836 9757443.498 10 0 60511 18900.00000 0 -8363651.867 -23138707.341 6760077.669 10 0 60511 19800.00000 0 -8662929.692 -23724237.454 3631498.164 10 0 60511 20700.00000 0 -8882252.506 -23916693.057 432431.343 10 0 60511 21600.00000 0 -8967372.699 -23727250.115 -2775032.125 10 0 60511 22500.00000 0 -8868371.509 -23179707.452 -5928641.631 10 0 60511 23400.00000 0 -8542002.029 -22309402.921 -8967193.941 10 0 60511 24300.00000 0 -7953758.158 -21161665.033 -11831719.895 10 0 60511 25200.00000 0 -7079581.581 -19789865.328 -14466627.369 10 0 60511 26100.00000 0 -5907134.018 -18253153.544 -16820778.283 10 0 60511 27000.00000 0 -4436580.251 -16613970.545 -18848478.856 10 0 60511 27900.00000 0 -2680847.886 -14935443.343 -20510364.164 10 0 60511 28800.00000 0 -665351.817 -13278771.350 -21774160.232 10 0 60511 29700.00000 0 1572806.498 -11700712.756 -22615309.210 10 0 60511 30600.00000 0 3986132.913 -10251275.871 -23017445.901 10 0 60511 31500.00000 0 6518475.103 -8971711.458 -22972716.680 10 0 60511 32400.00000 0 9107126.889 -7892889.488 -22481934.716 10 0 60511 33300.00000 0 11685216.146 -7034127.642 -21554568.406 10 0 60511 34200.00000 0 14184278.120 -6402520.118 -20208562.932 10 0 60511 35100.00000 0 16536908.092 -5992794.402 -18469997.866 10 0 60511 36000.00000 0 18679383.731 -5787701.633 -16372586.839 10 0 60511 36900.00000 0 20554148.384 -5758923.872 -13957028.243 10 0 60511 37800.00000 0 22112051.994 -5868459.791 -11270218.904 10 0 60511 38700.00000 0 23314256.164 -6070430.103 -8364345.439 10 0 60511 39600.00000 0 24133723.566 -6313226.145 -5295870.627 10 0 60511 40500.00000 0 24556229.249 -6541910.323 -2124434.422 10 0 60511 41400.00000 0 24580851.297 -6700766.257 1088308.840 10 0 60511 42300.00000 0 24219920.258 -6735889.844 4279893.918 10 0 60511 43200.00000 0 23498429.601 -6597710.615 7388264.789 10 0 60511 44100.00000 0 22452932.323 -6243335.575 10352986.928 10 0 60511 45000.00000 0 21129970.579 -5638615.235 13116427.362 10 0 60511 45900.00000 0 19584104.985 -4759843.371 15624878.914 10 0 60511 46800.00000 0 17875627.027 -3595017.654 17829606.308 10 0 60511 47700.00000 0 16068051.300 -2144606.989 19687793.547 10 0 60511 48600.00000 0 14225493.237 -421792.319 21163374.213 10 0 60511 49500.00000 0 12410042.525 1547830.085 22227728.853 10 0 60511 50400.00000 0 10679242.191 3727071.208 22860236.366 10 0 60511 51300.00000 0 9083778.533 6068464.095 23048669.308 10 0 60511 52200.00000 0 7665477.853 8516016.703 22789426.056 10 0 60511 53100.00000 0 6455692.892 11007330.385 22087595.906 10 0 60511 54000.00000 0 5474145.279 13475996.468 20956856.263 10 0 60511 54900.00000 0 4728271.196 15854171.843 19419204.196 10 0 60511 55800.00000 0 4213096.335 18075227.030 17504527.637 10 0 60511 56700.00000 0 3911644.149 20076357.118 15250024.478 10 0 60511 57600.00000 0 3795859.041 21801047.483 12699480.581 10 0 60511 58500.00000 0 3828004.711 23201292.010 9902420.486 10 0 60511 59400.00000 0 3962477.914 24239471.792 6913147.013 10 0 60511 60300.00000 0 4147960.451 24889816.301 3789688.151 10 0 60511 61200.00000 0 4329818.059 25139386.309 592671.601 10 0 60511 62100.00000 0 4452644.333 24988537.817 -2615851.212 10 0 60511 63000.00000 0 4462841.792 24450847.858 -5773608.764 10 0 60511 63900.00000 0 4311130.523 23552505.626 -8819317.161 10 0 60511 64800.00000 0 3954877.918 22331194.773 -11693868.418 10 0 60511 65700.00000 0 3360150.569 20834513.869 -14341476.116 10 0 60511 66600.00000 0 2503401.075 19118001.420 -16710756.187 10 0 60511 67500.00000 0 1372717.883 17242848.147 -18755721.935 10 0 60511 68400.00000 0 -31415.414 15273392.258 -20436674.287 10 0 60511 69300.00000 0 -1695884.297 13274502.271 -21720970.303 10 0 60511 70200.00000 0 -3595242.195 11308956.419 -22583655.429 10 0 60511 71100.00000 0 -5692532.887 9434927.623 -23007947.634 10 0 60511 72000.00000 0 -7940603.500 7703678.361 -22985564.277 10 0 60511 72900.00000 0 -10283854.753 6157561.048 -22516885.523 10 0 60511 73800.00000 0 -12660356.924 4828406.670 -21610951.058 10 0 60511 74700.00000 0 -15004244.596 3736368.289 -20285289.878 10 0 60511 75600.00000 0 -17248291.503 2889267.090 -18565585.948 10 0 60511 76500.00000 0 -19326559.050 2282467.742 -16485185.578 10 0 60511 77400.00000 0 -21177008.560 1899287.711 -14084455.351 10 0 60511 78300.00000 0 -22743968.496 1711922.828 -11410002.394 10 0 60511 79200.00000 0 -23980353.593 1682849.614 -8513771.533 10 0 60511 80100.00000 0 -24849542.790 1766644.729 -5452036.560 10 0 60511 81000.00000 0 -25326836.998 1912144.094 -2284305.094 10 0 60511 81900.00000 0 -25400435.187 2064849.691 927841.493 10 0 60511 82800.00000 0 -25071887.467 2169481.359 4121950.030 10 0 60511 83700.00000 0 -24356005.950 2172564.608 7235915.390 10 0 60511 84600.00000 0 -23280237.126 2024943.813 10209193.734 10 0 60511 85500.00000 0 -21883522.258 1684113.337 12983984.750 10 0 60512 0.00000 0 -20214694.203 1116266.916 15506359.036 10 0 60512 900.00000 0 -18330477.427 297977.329 17727309.541 10 0 60512 1800.00000 0 -16293177.904 -782564.752 19603703.029 10 0 60512 2700.00000 0 -14168157.128 -2124806.795 21099117.615 10 0 60512 3600.00000 0 -12021198.384 -3715616.783 22184546.976 10 0 60512 4500.00000 0 -9915874.627 -5529602.086 22838959.365 10 0 60512 5400.00000 0 -7911027.789 -7529952.125 23049700.992 10 0 60512 6300.00000 0 -6058464.179 -9669770.307 22812736.512 10 0 60512 7200.00000 0 -4400961.343 -11893840.212 22132722.567 10 0 60512 8100.00000 0 -2970668.424 -14140753.000 21022913.338 10 0 60512 9000.00000 0 -1787965.502 -16345307.967 19504900.268 10 0 60512 9900.00000 0 -860828.195 -18441086.757 17608191.048 10 0 60512 10800.00000 0 -184722.611 -20363094.486 15369635.996 10 0 60512 11700.00000 0 256966.349 -22050358.136 12832712.715 10 0 60512 12600.00000 0 491992.622 -23448374.194 10046682.703 10 0 60512 13500.00000 0 557833.312 -24511303.676 7065635.978 10 0 60512 14400.00000 0 499860.311 -25203823.043 3947442.033 10 0 60512 15300.00000 0 369177.132 -25502553.752 752627.411 10 0 60512 16200.00000 0 220212.916 -25397010.725 -2456798.370 10 0 60512 17100.00000 0 108175.839 -24890030.107 -5618545.680 10 0 60512 18000.00000 0 86474.026 -23997658.402 -8671252.902 10 0 60512 18900.00000 0 204213.454 -22748507.666 -11555676.226 10 0 60512 19800.00000 0 503879.075 -21182603.883 -14215837.984 10 0 60512 20700.00000 0 1019297.543 -19349776.616 -16600111.132 10 0 60512 21600.00000 0 1773968.114 -17307657.146 -18662218.956 10 0 60512 22500.00000 0 2779832.802 -15119368.712 -20362130.890 10 0 60512 23400.00000 0 4036538.398 -12851005.050 -21666837.362 10 0 60512 24300.00000 0 5531222.384 -10569002.037 -22550989.076 10 0 60512 25200.00000 0 7238832.909 -8337511.422 -22997388.675 10 0 60512 26100.00000 0 9122970.742 -6215885.521 -22997325.551 10 0 60512 27000.00000 0 11137219.364 -4256376.908 -22550747.457 10 0 60512 27900.00000 0 13226909.047 -2502148.135 -21666265.520 10 0 60512 28800.00000 0 15331242.532 -985673.697 -20360992.270 10 0 60512 29700.00000 0 17385694.754 272399.921 -18660215.362 10 0 60512 30600.00000 0 19324587.356 1263889.243 -16596912.634 10 0 60512 31500.00000 0 21083731.066 1993177.982 -14211117.250 10 0 60512 32400.00000 0 22603025.836 2476786.754 -11549144.533 10 0 60512 33300.00000 0 23828909.965 2742427.058 -8662694.934 10 0 60512 34200.00000 0 24716555.384 2827580.039 -5607850.209 10 0 60512 35100.00000 0 25231716.576 2777660.690 -2443982.206 10 0 60512 36000.00000 0 25352155.032 2643845.803 767404.380 10 0 60512 36900.00000 0 25068578.764 2480658.418 3963872.320 10 0 60512 37800.00000 0 24385056.930 2343411.908 7083271.263 10 0 60512 38700.00000 0 23318891.735 2285622.973 10064951.811 10 0 60512 39600.00000 0 21899952.809 2356504.069 12850949.824 10 0 60512 40500.00000 0 20169501.999 2598642.459 15387117.294 10 0 60512 41400.00000 0 18178558.014 3045964.995 17624177.286 10 0 60512 42300.00000 0 15985869.756 3722075.505 19518682.170 10 0 60512 43200.00000 0 13655583.418 4639035.735 21033856.529 10 0 60512 44100.00000 0 11254701.096 5796641.891 22140308.632 10 0 60512 45000.00000 0 8850437.086 7182227.877 22816597.085 10 0 60512 45900.00000 0 6507581.974 8771004.039 23049642.255 10 0 60512 46800.00000 0 4285983.894 10526917.833 22834975.089 10 0 60512 47700.00000 0 2238251.188 12404000.898 22176819.065 10 0 60512 48600.00000 0 407771.131 14348146.793 21088004.149 10 0 60512 49500.00000 0 -1172873.985 16299245.636 19589714.687 10 0 60512 50400.00000 0 -2483028.712 18193587.022 17711076.232 10 0 60512 51300.00000 0 -3514578.978 19966431.339 15488589.268 10 0 60512 52200.00000 0 -4272035.100 21554642.496 12965420.598 10 0 60512 53100.00000 0 -4772081.267 22899272.337 10190565.901 10 0 60512 54000.00000 0 -5042611.789 23947988.895 7217899.451 10 0 60512 54900.00000 0 -5121295.816 24657247.000 4105129.205 10 0 60512 55800.00000 0 -5053732.023 24994110.336 912677.441 10 0 60512 56700.00000 0 -4891271.921 24937648.547 -2297491.335 10 0 60512 57600.00000 0 -4688604.409 24479850.691 -5463072.427 10 0 60512 58500.00000 0 -4501204.182 23626016.571 -8522629.388 10 0 60512 59400.00000 0 -4382752.296 22394609.338 -11416785.306 10 0 60512 60300.00000 0 -4382638.342 20816575.297 -14089373.721 10 0 60512 61200.00000 0 -4543650.080 18934159.100 -16488526.761 10 0 60512 62100.00000 0 -4899948.534 16799263.623 -18567679.539 10 0 60512 63000.00000 0 -5475414.388 14471422.611 -20286471.541 10 0 60512 63900.00000 0 -6282435.955 12015470.318 -21611527.828 10 0 60512 64800.00000 0 -7321190.445 9499004.792 -22517105.337 10 0 60512 65700.00000 0 -8579449.601 6989749.776 -22985592.086 10 0 60512 66600.00000 0 -10032918.920 4552924.360 -23007849.910 10 0 60512 67500.00000 0 -11646097.402 2248728.985 -22583394.233 10 0 60512 68400.00000 0 -13373623.092 130051.571 -21720407.357 10 0 60512 69300.00000 0 -15162049.321 -1759511.625 -20435584.708 10 0 60512 70200.00000 0 -16951978.514 -3387238.856 -18753816.604 10 0 60512 71100.00000 0 -18680465.260 -4732404.242 -16707711.032 10 0 60512 72000.00000 0 -20283588.792 -5786891.619 -14336966.023 10 0 60512 72900.00000 0 -21699087.573 -6555275.918 -11687603.118 10 0 60512 73800.00000 0 -22868945.675 -7054369.466 -8811076.186 10 0 60512 74700.00000 0 -23741822.232 -7312252.962 -5763272.573 10 0 60512 75600.00000 0 -24275221.481 -7366832.770 -2603425.834 10 0 60512 76500.00000 0 -24437311.553 -7263986.167 607038.668 10 0 60512 77400.00000 0 -24208314.762 -7055373.800 3805702.412 10 0 60512 78300.00000 0 -23581410.179 -6796012.831 6930372.689 10 0 60512 79200.00000 0 -22563109.805 -6541714.424 9920297.474 10 0 60512 80100.00000 0 -21173092.031 -6346495.072 12717351.745 10 0 60512 81000.00000 0 -19443498.983 -6260072.282 15267171.547 10 0 60512 81900.00000 0 -17417727.063 -6325551.436 17520213.237 10 0 60512 82800.00000 0 -15148761.328 -6577402.391 19432717.021 10 0 60512 83700.00000 0 -12697123.468 -7039811.910 20967556.078 10 0 60512 84600.00000 0 -10128519.121 -7725481.942 22094954.999 10 0 60512 85500.00000 0 -7511282.740 -8634924.790 22793064.033 10 0 60513 0.00000 0 -4913726.472 -9756285.114 23048378.549 10 0 60513 900.00000 0 -2401501.684 -11065697.201 22855996.241 10 0 60513 1800.00000 0 -35085.720 -12528161.357 22219707.409 10 0 60513 2700.00000 0 2132507.073 -14098905.038 21151917.461 10 0 60513 3600.00000 0 4057692.462 -15725170.687 19673402.977 10 0 60513 4500.00000 0 5707882.406 -17348356.380 17812906.398 10 0 60513 5400.00000 0 7062586.007 -18906419.969 15606577.097 10 0 60513 6300.00000 0 8114000.930 -20336446.457 13097269.488 10 0 60513 7200.00000 0 8867072.049 -21577271.298 10333711.547 10 0 60513 8100.00000 0 9339016.340 -22572049.926 7369559.640 10 0 60513 9000.00000 0 9558335.290 -23270665.826 4262357.759 10 0 60513 9900.00000 0 9563357.551 -23631876.065 1072421.286 10 0 60513 10800.00000 0 9400374.228 -23625104.113 -2138333.083 10 0 60513 11700.00000 0 9121446.276 -23231804.392 -5307588.482 10 0 60513 12600.00000 0 8781977.226 -22446340.927 -8373836.596 10 0 60513 13500.00000 0 8438154.299 -21276342.842 -11277570.370 10 0 60513 14400.00000 0 8144366.407 -19742521.300 -13962437.475 10 0 60513 15300.00000 0 7950708.408 -17877955.101 -16376332.076 10 0 60513 16200.00000 0 7900677.196 -15726874.165 -18472403.817 10 0 60513 17100.00000 0 8029157.111 -13342991.197 -20209964.696 10 0 60513 18000.00000 0 8360779.947 -10787450.602 -21555276.578 10 0 60513 18900.00000 0 8908728.931 -8126479.342 -22482204.442 10 0 60513 19800.00000 0 9674037.530 -5428836.765 -22972723.099 10 0 60513 20700.00000 0 10645413.243 -2763168.680 -23017267.831 10 0 60513 21600.00000 0 11799594.608 -195374.761 -22614922.345 10 0 60513 22500.00000 0 13102227.416 2213902.218 -21773440.330 10 0 60513 23400.00000 0 14509224.427 4411561.820 -20509099.967 10 0 60513 24300.00000 0 15968552.604 6354011.873 -18846393.728 10 0 60513 25200.00000 0 17422373.900 8008733.878 -16817558.873 10 0 60513 26100.00000 0 18809450.517 9355383.355 -14461957.041 10 0 60513 27000.00000 0 20067714.226 10386379.943 -11825314.318 10 0 60513 27900.00000 0 21136892.054 11106963.269 -8958835.895 10 0 60513 28800.00000 0 21961077.830 11534712.976 -5918212.185 10 0 60513 29700.00000 0 22491141.038 11698553.860 -2762535.558 10 0 60513 30600.00000 0 22686870.931 11637288.832 446851.161 10 0 60513 31500.00000 0 22518764.770 11397722.472 3647551.578 10 0 60513 32400.00000 0 21969383.997 11032455.367 6777334.145 10 0 60513 33300.00000 0 21034220.296 10597443.449 9775347.725 10 0 60513 34200.00000 0 19722034.299 10149426.550 12583309.824 10 0 60513 35100.00000 0 18054651.990 9743335.859 15146643.768 10 0 60513 36000.00000 0 16066226.813 9429790.749 17415542.190 10 0 60513 36900.00000 0 13801998.086 9252791.496 19345935.826 10 0 60513 37800.00000 0 11316597.426 9247705.819 20900348.811 10 0 60513 38700.00000 0 8671973.774 9439634.608 22048624.051 10 0 60513 39600.00000 0 5935023.435 9842225.912 22768505.012 10 0 60513 40500.00000 0 3175023.601 10456987.260 23046063.182 10 0 60513 41400.00000 0 460975.738 11273125.309 22875963.523 10 0 60513 42300.00000 0 -2141031.242 12267919.598 22261563.304 10 0 60513 43200.00000 0 -4570329.242 13407614.835 21214842.874 10 0 60513 44100.00000 0 -6773947.417 14648794.392 19756169.992 10 0 60513 45000.00000 0 -8708563.257 15940177.604 17913902.398 10 0 60513 45900.00000 0 -10342048.435 17224765.680 15723836.307 10 0 60513 46800.00000 0 -11654546.418 18442246.455 13228511.319 10 0 60513 47700.00000 0 -12639038.224 19531557.234 10476384.998 10 0 60513 48600.00000 0 -13301374.172 20433498.237 7520892.900 10 0 60513 49500.00000 0 -13659771.587 21093286.936 4419412.032 10 0 60513 50400.00000 0 -13743800.829 21462945.776 1232147.801 10 0 60513 51300.00000 0 -13592903.363 21503422.730 -1979033.989 10 0 60513 52200.00000 0 -13254505.238 21186355.191 -5151807.352 10 0 60513 53100.00000 0 -12781806.265 20495402.569 -8224595.068 10 0 60513 54000.00000 0 -12231338.773 19427091.090 -11137762.772 10 0 60513 54900.00000 0 -11660399.390 17991134.673 -13834774.892 10 0 60513 55800.00000 0 -11124462.600 16210217.765 -16263289.981 10 0 60513 56700.00000 0 -10674685.309 14119248.448 -18376174.281 10 0 60513 57600.00000 0 -10355607.778 11764112.201 -20132414.087 10 0 60513 58500.00000 0 -10203147.887 9199977.529 -21497909.528 10 0 60513 59400.00000 0 -10242973.295 6489223.201 -22446134.778 10 0 60513 60300.00000 0 -10489320.155 3699072.416 -22958652.285 10 0 60513 61200.00000 0 -10944308.293 899031.318 -23025471.322 10 0 60513 62100.00000 0 -11597782.096 -1841762.682 -22645244.092 10 0 60513 63000.00000 0 -12427684.363 -4457173.632 -21825295.567 10 0 60513 63900.00000 0 -13400948.105 -6886572.353 -20581486.216 10 0 60513 64800.00000 0 -14474869.633 -9077111.129 -18937909.863 10 0 60513 65700.00000 0 -15598906.041 -10985673.970 -16926431.901 10 0 60513 66600.00000 0 -16716822.202 -12580421.907 -14586076.141 10 0 60513 67500.00000 0 -17769097.534 -13841869.564 -11962271.510 10 0 60513 68400.00000 0 -18695491.528 -14763448.624 -9105972.604 10 0 60513 69300.00000 0 -19437659.958 -15351535.218 -6072670.806 10 0 60513 70200.00000 0 -19941711.227 -15624940.759 -2921315.025 10 0 60513 71100.00000 0 -20160594.467 -15613888.363 286836.875 10 0 60513 72000.00000 0 -20056217.830 -15358518.751 3489413.206 10 0 60513 72900.00000 0 -19601206.680 -14906989.542 6624146.320 10 0 60513 73800.00000 0 -18780226.497 -14313249.114 9630088.835 10 0 60513 74700.00000 0 -17590813.740 -13634580.018 12448803.735 10 0 60513 75600.00000 0 -16043678.762 -12929016.671 15025504.596 10 0 60513 76500.00000 0 -14162467.222 -12252747.228 17310123.209 10 0 60513 77400.00000 0 -11982989.347 -11657610.050 19258283.555 10 0 60513 78300.00000 0 -9551948.817 -11188790.880 20832163.162 10 0 60513 79200.00000 0 -6925223.955 -10882818.097 22001225.344 10 0 60513 80100.00000 0 -4165772.620 -10765940.618 22742808.479 10 0 60513 81000.00000 0 -1341247.694 -10852956.607 23042561.445 10 0 60513 81900.00000 0 1478578.059 -11146542.051 22894717.357 10 0 60513 82800.00000 0 4224471.269 -11637107.192 22302200.847 10 0 60513 83700.00000 0 6830371.596 -12303186.553 21276567.255 10 0 60513 84600.00000 0 9235891.182 -13112346.010 19837775.191 10 0 60513 85500.00000 0 11388577.055 -14022568.638 18013797.022 99